Wind_Speed
6 6 6 7 7 6 6 7 7 7 7 6 6 7 7 6 6 6 6 7 7 7 6 7 7 8 8 8 8 9 9 8 9 9 9 10 10 10 11 11 11 12 12
6 6 7 7 7 7 7 7 7 7 7 7 7 8 8 7 7 7 7 6 7 7 7 8 8 8 8 9 9 9 9 9 9 9 10 10 11 11 11 12 12 12 12
7 7 7 8 8 8 7 8 8 7 7 8 8 8 8 8 8 8 8 7 7 8 8 8 8 9 9 9 10 9 9 9 9 10 10 11 11 11 12 12 12 13 12
8 8 8 8 8 8 8 8 8 8 8 8 8 9 8 8 8 8 8 8 8 8 8 9 9 9 10 10 10 10 10 10 10 10 10 11 11 11 12 12 13 12 12
9 8 9 9 9 9 8 8 9 9 9 9 9 9 8 9 9 8 9 9 9 9 9 9 9 9 9 10 10 10 10 11 11 12 11 11 11 12 13 13 13 12 12
8 9 9 9 10 10 9 9 9 10 10 10 10 10 9 9 9 9 9 9 9 9 9 9 9 9 9 9 10 10 10 11 11 11 11 11 11 12 13 13 13 12 11
8 9 10 9 10 11 10 10 10 10 10 10 10 10 10 10 10 10 10 9 9 9 9 9 9 9 9 9 10 11 10 10 11 11 11 11 12 12 13 13 12 12 11
9 9 10 10 10 11 11 11 11 11 10 10 11 11 11 10 10 10 10 10 10 10 10 10 9 9 10 10 10 10 10 10 11 11 11 11 12 12 13 12 11 12 12
11 11 11 11 11 11 12 12 12 11 11 11 11 11 11 11 11 11 10 11 11 11 11 11 11 11 11 11 11 11 11 11 11 11 11 11 12 11 11 10 9 10 11
12 12 12 11 11 12 12 12 12 12 11 11 11 11 12 12 12 12 11 11 11 11 12 12 11 11 11 12 12 12 12 11 11 11 11 11 10 10 9 8 7 7 8
13 12 12 12 12 12 12 12 12 12 12 11 11 12 12 12 13 13 12 12 12 12 12 12 12 12 12 12 12 12 11 11 11 10 10 10 9 8 8 7 6 7 7
14 13 13 13 13 13 13 12 12 12 12 12 12 12 13 13 13 13 13 13 13 13 13 13 13 13 12 11 11 11 11 11 11 10 10 9 9 8 7 7 7 8 8
15 15 14 14 14 14 13 13 12 13 13 13 13 13 13 14 14 14 14 14 14 14 14 13 13 13 13 12 11 11 12 12 11 11 10 10 9 8 8 8 8 9 9
16 16 16 15 15 15 14 14 13 13 13 14 14 14 14 15 15 15 15 15 15 15 15 14 14 14 13 13 13 13 12 12 12 12 11 10 9 9 9 9 9 10 10
17 16 16 16 15 16 16 15 15 15 15 15 15 15 15 15 15 15 15 16 16 15 15 16 15 15 14 14 14 14 13 13 13 13 11 10 10 10 10 10 10 10 11
18 17 17 16 16 16 16 16 16 16 16 16 15 15 15 15 16 15 15 16 17 16 15 16 16 16 15 15 14 14 14 14 13 13 12 11 11 10 10 11 11 11 11
19 19 19 18 18 18 18 18 18 17 17 17 17 17 16 16 16 16 16 17 17 17 16 16 17 17 16 15 15 15 15 14 14 14 13 13 12 12 12 12 12 12 12
20 20 21 21 21 20 20 20 19 19 18 18 18 18 18 18 17 18 18 18 17 17 17 17 18 17 17 16 16 15 15 14 14 14 14 14 14 13 13 13 13 13 13
21 21 21 22 22 21 21 21 20 19 19 19 19 19 19 19 18 19 19 19 18 18 18 18 18 18 18 17 17 16 16 15 15 15 16 15 15 15 14 14 14 14 13
22 21 22 21 21 21 21 20 20 20 20 20 20 20 20 19 20 19 20 19 19 19 19 19 19 19 19 19 18 17 17 17 17 16 16 16 16 16 15 15 15 15 14
22 21 21 21 21 21 21 21 20 20 21 21 21 21 21 21 20 20 21 21 20 19 19 19 19 19 19 19 19 19 19 19 18 17 17 17 17 17 17 16 16 16 16
22 22 21 21 22 22 22 22 22 22 21 22 22 21 21 21 21 21 21 21 21 20 20 20 20 20 21 21 20 20 20 20 19 18 18 18 18 18 18 18 17 17 17
23 23 23 23 23 24 24 23 23 23 23 23 23 22 22 23 23 23 23 22 22 22 22 22 22 21 21 22 22 21 21 21 20 20 20 19 19 19 19 18 18 18 18
24 24 24 25 25 25 25 25 25 25 24 24 23 23 24 24 25 25 25 24 23 23 23 23 23 23 22 22 22 22 22 22 21 22 22 20 19 19 20 19 19 19 19
26 26 26 26 26 26 26 26 26 25 25 24 24 24 25 25 25 25 25 25 24 24 24 24 24 23 23 23 22 22 22 22 22 23 23 22 22 21 21 21 21 21 21
27 27 27 27 27 27 27 27 27 26 26 25 26 25 25 26 26 25 25 26 26 26 26 25 25 24 24 24 24 23 23 23 23 23 24 24 24 24 23 23 23 23 23
Wind_Direction
293 296 296 293 292 294 290 287 288 286 278 283 289 285 279 276 277 277 277 276 275 280 284 279 275 272 273 274 274 275 276 272 270 273 274 270 268 269 271 270 271 271 265
289 294 294 291 287 289 286 285 283 281 279 278 284 281 273 268 268 273 273 273 273 275 279 282 280 277 275 275 275 274 276 273 273 276 277 276 273 269 269 269 269 270 268
283 289 292 290 285 284 284 281 279 275 276 274 278 280 274 269 266 268 269 270 272 276 278 281 282 279 278 276 277 278 278 277 277 281 281 280 276 273 272 273 269 268 265
279 284 286 288 288 285 282 283 283 277 277 275 272 273 275 272 270 269 267 269 272 276 278 278 278 277 280 278 277 278 279 277 280 281 282 280 276 273 277 277 274 268 262
279 282 283 285 287 286 284 283 282 279 277 274 270 270 271 272 275 272 269 267 267 272 276 277 277 278 282 280 278 278 279 278 280 281 282 281 278 279 279 278 275 270 262
284 285 284 283 283 282 281 281 281 278 276 273 270 268 267 266 270 273 271 268 266 271 276 278 276 279 282 281 279 279 281 281 282 287 284 281 281 281 279 280 271 266 261
285 288 287 284 285 283 281 282 281 276 273 270 270 269 269 266 266 271 271 267 265 268 273 276 279 283 282 279 279 280 282 282 285 288 288 283 283 283 283 280 271 264 260
283 285 284 285 287 284 283 283 280 276 273 270 271 270 271 269 268 268 268 267 266 267 270 275 281 281 279 280 281 284 288 284 289 292 290 286 284 284 285 281 272 263 261
281 283 282 282 283 283 283 281 280 279 273 270 270 270 268 270 269 268 267 267 266 265 267 272 276 278 276 278 280 283 287 289 290 293 290 288 286 289 288 280 275 265 260
281 284 285 281 281 283 282 279 277 277 276 273 271 268 264 263 264 266 266 267 267 267 269 272 275 279 277 276 276 281 283 285 289 293 293 292 291 292 294 289 278 266 258
279 281 282 282 282 284 281 277 278 276 275 274 271 268 264 262 263 264 267 267 266 267 268 270 271 275 277 275 274 278 280 283 287 292 293 291 292 292 292 290 283 277 270
277 280 282 282 283 282 279 276 276 275 273 271 272 269 266 262 263 264 266 268 268 269 269 270 269 271 273 271 277 280 279 281 285 289 292 291 291 291 291 288 286 282 279
274 276 278 281 283 283 281 277 275 273 273 272 273 271 267 264 264 264 263 265 268 268 267 269 270 269 268 268 275 280 280 280 281 284 286 287 287 288 288 286 285 283 283
273 275 277 278 279 279 281 280 277 275 274 273 272 271 270 267 266 265 264 263 264 265 266 266 267 266 267 268 272 276 276 275 276 278 281 284 285 285 286 288 285 284 281
273 274 275 275 275 276 278 277 278 277 275 275 274 271 268 268 268 268 266 263 262 264 264 263 262 263 265 266 270 270 272 274 273 273 276 279 282 283 284 289 291 287 285
271 271 272 274 273 272 273 275 276 276 275 274 275 273 269 268 267 266 266 264 263 262 262 261 262 263 263 263 265 266 268 272 272 271 271 274 277 278 282 287 288 287 285
270 271 270 271 272 270 270 272 274 274 274 272 273 272 271 268 266 264 264 266 267 264 260 258 260 262 263 263 264 265 266 268 269 268 268 271 276 274 279 284 286 286 285
272 272 271 272 272 271 270 270 271 272 272 271 271 271 270 268 267 264 263 264 266 266 263 259 258 260 260 261 262 265 264 266 266 267 268 270 272 274 277 281 284 284 283
272 272 274 273 273 272 272 271 270 270 269 268 269 269 268 267 267 264 263 263 263 264 262 261 259 259 258 259 261 263 264 266 265 266 268 268 270 273 278 281 284 284 283
271 272 273 274 275 273 274 274 272 270 269 267 266 267 267 266 265 266 263 261 260 261 261 261 261 260 259 260 261 261 262 265 266 266 266 267 270 272 277 280 282 283 282
271 271 271 271 272 273 273 274 272 270 270 267 264 265 266 264 264 264 262 259 259 260 260 261 260 260 259 260 260 260 262 263 264 264 265 267 269 272 275 276 278 280 281
272 270 270 271 271 271 272 271 271 271 270 268 265 263 264 264 263 262 260 260 259 260 261 261 261 260 259 259 260 261 263 262 262 264 266 268 268 270 273 275 276 278 278
271 269 271 271 271 271 270 271 273 270 269 268 266 263 262 262 262 261 258 257 258 258 260 261 261 262 263 261 261 260 261 261 262 262 263 266 269 269 271 274 275 276 277
272 271 271 271 271 271 271 271 271 272 270 268 266 265 263 263 262 261 259 258 257 257 260 262 263 264 263 261 261 261 261 261 261 263 262 262 266 269 270 272 274 275 277
269 269 271 270 270 269 269 270 271 271 270 268 268 266 264 264 263 262 260 257 256 257 259 261 262 263 262 262 262 260 261 261 260 262 263 262 262 267 270 273 274 275 276
268 269 269 270 270 269 269 270 270 269 269 268 268 266 265 264 263 261 260 257 256 257 258 259 260 261 262 262 262 262 261 262 261 261 261 263 264 265 268 271 273 274 275
Height
5873 5872 5872 5872 5872 5872 5872 5873 5873 5873 5873 5873 5873 5874 5874 5874 5874 5874 5874 5874 5874 5874 5874 5873 5873 5873 5873 5873 5872 5872 5871 5871 5871 5872 5872 5872 5871 5871 5871 5871 5871 5871 5871
5871 5871 5871 5871 5870 5871 5871 5871 5871 5871 5871 5871 5872 5872 5872 5872 5873 5873 5873 5872 5872 5872 5872 5872 5872 5871 5871 5871 5871 5870 5870 5870 5870 5870 5869 5869 5869 5869 5869 5868 5868 5868 5868
5869 5869 5869 5869 5869 5869 5869 5869 5869 5869 5869 5869 5870 5870 5870 5870 5870 5871 5871 5871 5871 5871 5871 5870 5870 5870 5869 5869 5869 5868 5868 5868 5868 5867 5867 5867 5867 5866 5866 5866 5865 5865 5865
5867 5867 5867 5867 5867 5867 5867 5867 5867 5867 5867 5867 5867 5868 5868 5868 5868 5868 5869 5869 5869 5869 5869 5868 5868 5868 5868 5867 5867 5866 5866 5866 5865 5865 5865 5864 5864 5864 5863 5863 5862 5862 5862
5866 5865 5865 5865 5865 5865 5865 5865 5865 5865 5865 5865 5865 5865 5866 5866 5866 5866 5866 5866 5866 5866 5866 5866 5866 5866 5865 5865 5864 5864 5864 5863 5863 5863 5862 5862 5861 5861 5860 5859 5859 5859 5859
5864 5863 5863 5863 5863 5863 5863 5863 5863 5863 5863 5863 5863 5863 5863 5863 5864 5864 5864 5864 5864 5864 5864 5864 5864 5864 5863 5863 5863 5862 5862 5861 5861 5860 5860 5859 5859 5858 5857 5856 5855 5856 5856
5862 5861 5861 5861 5861 5861 5860 5860 5860 5860 5860 5860 5860 5860 5860 5860 5861 5861 5861 5861 5862 5862 5862 5862 5862 5862 5861 5861 5861 5861 5860 5859 5859 5858 5857 5857 5856 5855 5853 5852 5852 5852 5853
5860 5859 5859 5859 5858 5858 5858 5858 5858 5857 5857 5857 5857 5857 5857 5858 5858 5858 5858 5859 5859 5859 5859 5859 5859 5859 5859 5859 5859 5859 5858 5857 5856 5856 5855 5854 5853 5852 5850 5848 5847 5848 5849
5857 5857 5856 5856 5856 5856 5855 5855 5855 5855 5855 5854 5854 5855 5855 5855 5855 5855 5855 5855 5856 5856 5857 5857 5857 5857 5857 5857 5857 5857 5856 5855 5854 5853 5853 5851 5850 5848 5846 5844 5843 5844 5846
5855 5854 5854 5853 5853 5853 5852 5852 5852 5852 5852 5851 5851 5851 5851 5852 5852 5852 5853 5853 5853 5853 5854 5854 5854 5854 5854 5854 5854 5854 5853 5853 5852 5851 5850 5849 5848 5846 5844 5842 5842 5842 5844
5852 5852 5851 5851 5850 5850 5849 5849 5849 5849 5848 5848 5848 5848 5848 5849 5849 5849 5850 5850 5850 5850 5850 5851 5851 5851 5851 5851 5851 5851 5851 5850 5850 5849 5849 5848 5846 5845 5844 5842 5842 5842 5842
5849 5848 5848 5848 5847 5847 5846 5846 5846 5845 5845 5845 5845 5845 5845 5845 5846 5846 5846 5846 5846 5847 5847 5848 5848 5848 5848 5848 5848 5848 5848 5848 5848 5847 5847 5846 5845 5844 5843 5842 5841 5841 5841
5844 5844 5844 5844 5844 5843 5843 5843 5842 5842 5842 5842 5842 5842 5842 5842 5842 5842 5843 5843 5843 5843 5844 5844 5844 5845 5845 5845 5846 5846 5846 5845 5845 5845 5844 5844 5843 5842 5841 5841 5840 5840 5840
5841 5840 5840 5840 5840 5840 5839 5839 5839 5839 5839 5838 5838 5838 5838 5838 5838 5838 5839 5839 5839 5840 5840 5841 5841 5841 5842 5842 5843 5843 5843 5843 5843 5843 5842 5841 5841 5840 5840 5839 5839 5838 5838
5837 5836 5836 5836 5836 5836 5836 5835 5835 5835 5835 5835 5834 5834 5834 5834 5834 5834 5835 5835 5836 5836 5837 5837 5838 5838 5838 5839 5839 5840 5840 5840 5840 5840 5839 5839 5839 5838 5838 5837 5837 5836 5836
5832 5832 5831 5832 5831 5831 5831 5831 5831 5831 5831 5830 5830 5830 5830 5830 5830 5830 5831 5831 5832 5832 5833 5833 5834 5834 5835 5835 5836 5836 5837 5837 5837 5837 5837 5836 5836 5836 5835 5835 5834 5834 5833
5826 5826 5826 5826 5827 5827 5827 5826 5826 5826 5826 5826 5826 5826 5826 5826 5826 5826 5826 5827 5827 5828 5829 5829 5830 5830 5831 5832 5832 5833 5833 5833 5833 5833 5833 5833 5833 5833 5833 5832 5832 5831 5830
5821 5821 5821 5821 5821 5821 5821 5821 5820 5820 5820 5820 5821 5821 5821 5821 5821 5822 5822 5823 5823 5823 5824 5825 5826 5827 5827 5828 5828 5829 5829 5830 5830 5830 5830 5830 5830 5830 5830 5829 5828 5828 5827
5816 5816 5815 5815 5815 5815 5814 5814 5814 5814 5814 5815 5815 5815 5816 5816 5817 5817 5817 5818 5818 5819 5820 5821 5822 5822 5823 5823 5824 5825 5826 5826 5826 5826 5826 5826 5826 5826 5826 5826 5825 5824 5824
5810 5810 5809 5809 5808 5808 5808 5808 5808 5808 5808 5809 5809 5810 5810 5811 5811 5812 5812 5813 5813 5814 5815 5816 5817 5818 5818 5819 5820 5821 5821 5822 5822 5822 5822 5822 5822 5822 5822 5822 5821 5820 5820
5804 5803 5803 5803 5803 5803 5803 5802 5802 5803 5803 5803 5803 5804 5804 5805 5805 5806 5807 5807 5808 5809 5810 5811 5812 5813 5813 5814 5815 5816 5816 5817 5817 5818 5818 5818 5818 5818 5818 5817 5817 5816 5815
5797 5797 5797 5797 5797 5797 5797 5797 5796 5796 5797 5797 5797 5797 5798 5799 5799 5800 5801 5801 5802 5803 5804 5805 5806 5807 5808 5809 5810 5810 5811 5812 5813 5813 5814 5814 5813 5813 5813 5813 5812 5812 5811
5789 5789 5790 5790 5790 5790 5790 5790 5790 5790 5790 5790 5790 5791 5791 5792 5793 5794 5794 5795 5796 5798 5799 5800 5801 5802 5802 5803 5804 5805 5805 5806 5807 5808 5808 5809 5808 5808 5808 5808 5807 5807 5806
5781 5782 5782 5783 5783 5783 5783 5783 5783 5783 5783 5783 5783 5784 5784 5785 5785 5786 5787 5788 5790 5791 5793 5794 5795 5795 5796 5797 5798 5798 5799 5800 5801 5801 5802 5803 5803 5803 5803 5802 5802 5801 5801
5774 5774 5775 5775 5775 5775 5775 5775 5775 5775 5775 5775 5776 5776 5777 5778 5778 5779 5780 5781 5783 5784 5785 5787 5788 5788 5789 5790 5791 5792 5793 5793 5795 5795 5795 5796 5797 5797 5797 5796 5796 5795 5795
5766 5766 5766 5766 5767 5767 5767 5767 5767 5767 5767 5768 5768 5769 5769 5770 5771 5771 5772 5774 5775 5777 5778 5779 5780 5781 5782 5783 5784 5785 5786 5787 5788 5789 5789 5789 5790 5790 5790 5790 5789 5789 5788